Tracking 19177 objects as of 24-May-2018
HD Live streaming from Space Station
objects crossing your sky now

COSMOS 1629

Track COSMOS 1629 now!
COSMOS 1629 is classified as:


NORAD ID: 15574
Int'l Code: 1985-016A
Perigee: 35,761.2 km
Apogee: 35,784.9 km
Inclination: 13.9 °
Period: 1,435.0 minutes
Semi major axis: 42144 km
RCS: 1.2589 m2 (large)
Launch date: February 21, 1985
Source: Commonwealth of Independent States (former USSR) (CIS)
Launch site: TYURATAM MISSILE AND SPACE COMPLEX (TTMTR)
aabbcc
Your satellite tracking list
Your tracking list is empty




NASA's NSSDC Master Catalog

Two Line Element Set (TLE):
1 15574U 85016A   18142.74275052 +.00000089 +00000-0 +00000-0 0  9997
2 15574 013.9447 340.3818 0002819 209.2355 164.8622 01.00345692120906
Source of the keplerian elements: AFSPC